| time (UTC) | temp F | wind direction | speed MPH | gust MPH | rain 1hr in | rain 24hr in | rain mn in | humidity % | barometer mb |
| 20260505035544 | 46 | 0.0 | 1.0 | 0.00 | 0.00 | 0.00 | 91 | 1014.6 | |
| 20260505033543 | 46 | 0.0 | 0.0 | 0.00 | 0.00 | 0.00 | 91 | 1014.6 | |
| 20260505032557 | 46 | 0.0 | 2.0 | 0.00 | 0.00 | 0.00 | 91 | 1014.7 | |
| 20260505031519 | 46 | 225 | 2.0 | 3.0 | 0.00 | 0.00 | 0.00 | 91 | 1014.8 |
| 20260505030613 | 46 | 0.0 | 1.0 | 0.00 | 0.00 | 0.00 | 91 | 1014.6 | |
| 20260505025607 | 46 | 225 | 1.0 | 3.0 | 0.00 | 0.00 | 0.00 | 90 | 1014.7 |
| 20260505023603 | 46 | 0.0 | 0.0 | 0.00 | 0.00 | 0.00 | 91 | 1014.8 | |
| 20260505022538 | 46 | 0.0 | 0.0 | 0.00 | 0.00 | 0.00 | 90 | 1014.7 | |
| 20260505021518 | 46 | 0.0 | 2.0 | 0.00 | 0.00 | 0.00 | 90 | 1014.9 | |
| 20260505020519 | 47 | 225 | 1.0 | 3.0 | 0.00 | 0.00 | 0.00 | 90 | 1015.0 |
| 20260505015519 | 47 | 0.0 | 1.0 | 0.00 | 0.00 | 0.00 | 90 | 1015.1 | |
| 20260505014543 | 47 | 0.0 | 1.0 | 0.00 | 0.00 | 0.00 | 89 | 1015.1 | |
| 20260505013538 | 48 | 225 | 1.0 | 2.0 | 0.00 | 0.00 | 0.00 | 89 | 1015.3 |
| 20260505012518 | 48 | 0.0 | 0.0 | 0.00 | 0.00 | 0.00 | 90 | 1015.4 | |
| 20260505011518 | 48 | 0.0 | 0.0 | 0.00 | 0.00 | 0.00 | 89 | 1015.2 | |
| 20260505010518 | 49 | 0.0 | 0.0 | 0.00 | 0.00 | 0.00 | 89 | 1015.2 | |
| 20260505005519 | 49 | 0.0 | 0.0 | 0.00 | 0.00 | 0.00 | 89 | 1015.2 | |
| 20260505004519 | 49 | 0.0 | 1.0 | 0.00 | 0.00 | 0.00 | 88 | 1015.3 | |
| 20260505003518 | 49 | 0.0 | 0.0 | 0.00 | 0.00 | 0.00 | 88 | 1015.4 | |
| 20260505002523 | 50 | 0.0 | 1.0 | 0.00 | 0.00 | 0.00 | 89 | 1015.5 | |
| 20260505001519 | 49 | 225 | 1.0 | 2.0 | 0.00 | 0.00 | 0.00 | 88 | 1015.5 |
| 20260505000524 | 50 | 0.0 | 2.0 | 0.00 | 0.00 | 0.00 | 88 | 1015.6 | |
| 20260504235520 | 50 | 225 | 1.0 | 2.0 | 0.00 | 0.00 | 0.00 | 88 | 1015.5 |
| 20260504234520 | 50 | 225 | 2.0 | 5.0 | 0.00 | 0.00 | 0.00 | 87 | 1015.6 |
| 20260504233518 | 51 | 293 | 2.0 | 3.0 | 0.00 | 0.00 | 0.00 | 87 | 1015.6 |
| 20260504232520 | 51 | 0.0 | 0.0 | 0.00 | 0.00 | 0.00 | 86 | 1015.5 | |
| 20260504231520 | 52 | 0 | 1.0 | 3.0 | 0.00 | 0.00 | 0.00 | 86 | 1015.5 |
| 20260504230540 | 52 | 0.0 | 2.0 | 0.00 | 0.00 | 0.00 | 85 | 1015.4 | |
| 20260504225517 | 52 | 90 | 1.0 | 3.0 | 0.00 | 0.00 | 0.00 | 86 | 1015.5 |
| 20260504224518 | 53 | 90 | 1.0 | 2.0 | 0.00 | 0.00 | 0.00 | 85 | 1015.5 |
| 20260504223538 | 53 | 90 | 1.0 | 3.0 | 0.00 | 0.00 | 0.00 | 84 | 1015.7 |
| 20260504222519 | 54 | 90 | 1.0 | 3.0 | 0.00 | 0.00 | 0.00 | 84 | 1015.7 |
| 20260504221518 | 54 | 113 | 1.0 | 3.0 | 0.00 | 0.00 | 0.00 | 84 | 1015.8 |
| 20260504220518 | 54 | 135 | 1.0 | 3.0 | 0.00 | 0.00 | 0.00 | 83 | 1015.8 |
| 20260504215520 | 55 | 90 | 2.0 | 5.0 | 0.00 | 0.00 | 0.00 | 82 | 1015.8 |
| 20260504214519 | 55 | 90 | 2.0 | 3.0 | 0.00 | 0.00 | 0.00 | 82 | 1015.7 |
| 20260504213521 | 55 | 68 | 1.0 | 3.0 | 0.00 | 0.00 | 0.00 | 81 | 1015.7 |
| 20260504212518 | 56 | 68 | 1.0 | 2.0 | 0.00 | 0.00 | 0.00 | 80 | 1015.6 |
| 20260504211519 | 56 | 68 | 2.0 | 4.0 | 0.00 | 0.00 | 0.00 | 80 | 1015.4 |
| 20260504210518 | 56 | 68 | 2.0 | 4.0 | 0.00 | 0.00 | 0.00 | 80 | 1015.5 |
| 20260504205524 | 57 | 68 | 2.0 | 5.0 | 0.00 | 0.00 | 0.00 | 80 | 1015.5 |
| 20260504204539 | 57 | 90 | 2.0 | 4.0 | 0.00 | 0.00 | 0.00 | 80 | 1015.6 |
| 20260504203518 | 57 | 90 | 2.0 | 3.0 | 0.00 | 0.00 | 0.00 | 81 | 1015.6 |
| 20260504202519 | 57 | 68 | 2.0 | 4.0 | 0.00 | 0.00 | 0.00 | 80 | 1015.6 |
| 20260504201524 | 58 | 68 | 1.0 | 3.0 | 0.00 | 0.00 | 0.00 | 80 | 1015.7 |
| 20260504200519 | 58 | 68 | 2.0 | 4.0 | 0.00 | 0.00 | 0.00 | 80 | 1015.6 |
| 20260504195519 | 58 | 68 | 2.0 | 3.0 | 0.00 | 0.00 | 0.00 | 80 | 1015.4 |
| 20260504194523 | 58 | 90 | 2.0 | 4.0 | 0.00 | 0.00 | 0.00 | 79 | 1015.3 |
| 20260504193522 | 59 | 90 | 2.0 | 4.0 | 0.00 | 0.00 | 0.00 | 79 | 1015.2 |
| 20260504192520 | 59 | 113 | 1.0 | 4.0 | 0.00 | 0.00 | 0.00 | 78 | 1015.2 |
| 20260504191520 | 59 | 90 | 2.0 | 5.0 | 0.00 | 0.00 | 0.00 | 76 | 1015.2 |
| 20260504190519 | 59 | 90 | 3.0 | 5.0 | 0.00 | 0.00 | 0.00 | 76 | 1015.1 |
| 20260504185519 | 59 | 68 | 4.0 | 8.0 | 0.00 | 0.00 | 0.00 | 75 | 1014.9 |
| 20260504184519 | 59 | 68 | 3.0 | 8.0 | 0.00 | 0.00 | 0.00 | 75 | 1014.9 |
| 20260504183518 | 59 | 68 | 3.0 | 8.0 | 0.00 | 0.00 | 0.00 | 76 | 1014.7 |
| 20260504182519 | 60 | 68 | 3.0 | 5.0 | 0.00 | 0.00 | 0.00 | 75 | 1014.7 |
| 20260504181518 | 60 | 68 | 4.0 | 8.0 | 0.00 | 0.00 | 0.00 | 75 | 1014.4 |
| 20260504180519 | 60 | 90 | 3.0 | 7.0 | 0.00 | 0.00 | 0.00 | 75 | 1014.5 |
| 20260504175522 | 60 | 68 | 3.0 | 7.0 | 0.00 | 0.00 | 0.00 | 75 | 1014.7 |
| 20260504174520 | 60 | 68 | 4.0 | 9.0 | 0.00 | 0.00 | 0.00 | 74 | 1014.5 |
| 20260504173524 | 60 | 68 | 4.0 | 9.0 | 0.00 | 0.00 | 0.00 | 75 | 1014.5 |
| 20260504172519 | 60 | 90 | 3.0 | 7.0 | 0.00 | 0.00 | 0.00 | 74 | 1014.6 |
| 20260504171539 | 61 | 68 | 4.0 | 8.0 | 0.00 | 0.00 | 0.00 | 75 | 1014.5 |
| 20260504170518 | 61 | 68 | 4.0 | 11.0 | 0.00 | 0.00 | 0.00 | 74 | 1014.6 |
| 20260504150518 | 62 | 0 | 7.0 | 10.0 | 0.00 | 0.00 | 0.00 | 72 | 1014.5 |
| 20260504140519 | 66 | 23 | 8.0 | 13.0 | 0.00 | 0.00 | 0.00 | 65 | 1014.8 |
| 20260504130523 | 70 | 180 | 3.0 | 8.0 | 0.00 | 0.00 | 0.00 | 48 | 1014.9 |
| 20260504110538 | 64 | 135 | 4.0 | 9.0 | 0.00 | 0.00 | 0.00 | 65 | 1015.2 |
| 20260504100519 | 62 | 113 | 3.0 | 8.0 | 0.00 | 0.00 | 0.00 | 73 | 1015.1 |
| 20260504081518 | 58 | 248 | 1.0 | 3.0 | 0.00 | 0.00 | 0.00 | 79 | 1014.8 |
| 20260504080517 | 58 | 270 | 1.0 | 3.0 | 0.00 | 0.00 | 0.00 | 80 | 1014.7 |
| 20260504050518 | 50 | 0.0 | 0.0 | 0.00 | 0.00 | 0.00 | 91 | 1012.9 | |
| 20260504045608 | 51 | 0.0 | 0.0 | 0.00 | 0.00 | 0.00 | 91 | 1012.9 | |
| 20260504044518 | 51 | 0.0 | 0.0 | 0.00 | 0.00 | 0.00 | 90 | 1012.7 | |
| 20260504043517 | 51 | 0.0 | 0.0 | 0.00 | 0.00 | 0.00 | 90 | 1012.7 | |
| 20260504042528 | 51 | 0.0 | 0.0 | 0.00 | 0.00 | 0.00 | 90 | 1012.9 | |
| 20260504041518 | 52 | 0.0 | 0.0 | 0.00 | 0.00 | 0.00 | 90 | 1012.9 | |
| 20260504040518 | 52 | 0.0 | 0.0 | 0.00 | 0.00 | 0.00 | 90 | 1012.9 |